Regional Weather Roundup
Issued by NWS Little Rock, AR

Home | Current Version | Previous Version | Text Only | Print | Product List | Glossary Off
Versions: 1 2 3 4 5 6 7 8 9 10 11 12 13 14 15 16 17 18 19 20 21 22 23 24 25 26 27 28 29 30 31 32 33 34 35 36 37 38 39 40 41 42 43 44 45 46 47 48 49 50

000
ASUS44 KLZK 221405
RWRLZK

WEATHER ROUNDUP FOR ARKANSAS
NATIONAL WEATHER SERVICE LITTLE ROCK AR
900 AM CDT TUE JUL 22 2014

NOTE: "FAIR" INDICATES FEW OR NO CLOUDS BELOW 12,000 FEET WITH NO
SIGNIFICANT WEATHER AND/OR OBSTRUCTIONS TO VISIBILITY.

ARZ001-003-010-029-221500-
NORTHWEST ARKANSAS

CITY           SKY/WX    TMP DP  RH WIND       PRES   REMARKS
FAYETTEVILLE   SUNNY     75  70  84 SE3       30.14R
FORT SMITH     SUNNY     77  69  76 E6        30.10S
HARRISON       SUNNY     74  68  81 CALM      30.14S
BENTONVILLE    SUNNY     77  68  73 SW6       30.15R
ROGERS         SUNNY     78  68  71 SW6       30.15S
SILOAM SPGS    SUNNY     75  66  73 SW6       30.15R
HIGHFILL       SUNNY     76  71  85 SW5       30.14R
SPRINGDALE     SUNNY     75  68  78 CALM      30.16R
$$

ARZ004-005-016-221500-
NORTH CENTRAL ARKANSAS

CITY           SKY/WX    TMP DP  RH WIND       PRES   REMARKS
BATESVILLE     SUNNY     73  68  83 CALM      30.10F
FLIPPIN        SUNNY     73  64  73 CALM      30.12S
MTN HOME       SUNNY     75  68  78 SW3       30.12R
$$

ARZ040-041-221500-
WEST CENTRAL ARKANSAS

CITY           SKY/WX    TMP DP  RH WIND       PRES   REMARKS
MENA           CLOUDY    70  70 100 CALM      30.15R VSB 1/4
MOUNT IDA      FOG       69  68  96 CALM      30.11S VSB 1/4
$$

ARZ009-017-025-026-028-221500-
NORTHEAST ARKANSAS

CITY           SKY/WX    TMP DP  RH WIND       PRES   REMARKS
CORNING        HAZE      75  68  78 CALM      30.11S VSB 1
JONESBORO      SUNNY     79  67  66 CALM      30.10S
NEWPORT        SUNNY     76  69  79 CALM      30.11F
WALNUT RIDGE   SUNNY     75  18  11 CALM      30.10S
BLYTHEVILLE    SUNNY     79  70  74 N5        30.09F
NW BLYTHEVILLE SUNNY     81  68  65 CALM      30.09
$$

ARZ022-023-033-042-044-221500-
CENTRAL ARKANSAS

CITY           SKY/WX    TMP DP  RH WIND       PRES   REMARKS
LITTLE ROCK    SUNNY     78  68  71 CALM      30.10S
N LITTLE ROCK  SUNNY     79  71  76 CALM      30.10S
JACKSONVILLE   SUNNY     76  69  78 CALM      30.10S
SEARCY         SUNNY     76  69  79 CALM      30.11F
HOT SPRINGS    CLOUDY    71  70  96 CALM      30.13R
RUSSELLVILLE   SUNNY     76  69  79 CALM      30.11S
CLINTON        FAIR      70  70 100 CALM      30.13S FOG
$$

ARZ036-221500-
EAST ARKANSAS

CITY           SKY/WX    TMP DP  RH WIND       PRES   REMARKS
WEST MEMPHIS   SUNNY     80  70  71 NE6       30.08S
$$

ARZ050-053-066-070-073-221500-
SOUTHWEST ARKANSAS

CITY           SKY/WX    TMP DP  RH WIND       PRES   REMARKS
ARKADELPHIA    FAIR      77  71  81 CALM      30.11S
CAMDEN         SUNNY     77  68  73 CALM      30.10S
TEXARKANA      SUNNY     77  71  82 SE6       30.10S
EL DORADO      SUNNY     76  71  85 CALM      30.10S
DE QUEEN       SUNNY     76  71  85 CALM      30.09S
$$

ARZ056-057-069-221500-
SOUTHEAST ARKANSAS

CITY           SKY/WX    TMP DP  RH WIND       PRES   REMARKS
PINE BLUFF     SUNNY     76  71  85 CALM      30.10S
STUTTGART      SUNNY     75  70  83 CALM      30.11S
MONTICELLO     SUNNY     78  70  76 VRB3      30.09S

$$




USA.gov is the U.S. government's official web portal to all federal, state and local government web resources and services.